Brunswick, GA

7:17 PM EDT on July 20, 2017 (GMT -0400)
Glynco Jetport

Weather History for KBQK - December, 2011

Change the Weather History Date:

Sunday, December 11, 2011

  Actual Average Record
Temperature  
Mean Temperature 53 °F -  
Max Temperature 55 °F 66 °F 83 °F (1931)
Min Temperature 51 °F 46 °F 26 °F (1981)
Degree Days  
Heating Degree Days 12    
Growing Degree Days 3 (Base 50)    
Moisture  
Dew Point 45 °F    
Average Humidity 73    
Maximum Humidity 77    
Minimum Humidity 67    
Precipitation  
Precipitation 0.00 in - - ()
Sea Level Pressure  
Sea Level Pressure 30.34 in    
Wind  
Wind Speed 11 mph (NNE)    
Max Wind Speed 17 mph    
Max Gust Speed 26 mph    
Visibility 10 miles    
Events Thunderstorm    
Averages and records for this station are not official NWS values.
T = Trace of Precipitation, MM = Missing Value Source: NWS Daily Summary

Daily Weather History Graph

Daily Weather History Graph

Search for Another Location

Airport or City:

Trip Planner

Search our weather history database for the weather conditions in past years. The results will help you decide how hot, cold, wet, or windy it might be!

Date:

Astronomy

Dec. 11, 2011 Rise Set
Actual Time 7:14 AM EST 5:23 PM EST
Civil Twilight 6:47 AM EST 5:50 PM EST
Nautical Twilight 6:17 AM EST 6:20 PM EST
Astronomical Twilight 5:47 AM EST 6:50 PM EST
Moon 6:32 PM EST (12/11) 8:01 AM EST (12/11)
Length of Visible Light 11h 02m
Length of Day
10h 09m
Full, 99% of the Moon is Illuminated
Dec 11
Full
Dec 17
Last Quarter
Dec 24
New
Jan 1
First Quarter
Jan 9
Full

Hourly Weather History & Observations

Time (EST) Temp. Dew Point Humidity Pressure Visibility Wind Dir Wind Speed Gust Speed Precip Events Conditions
12:15 AM 51.8 °F 42.8 °F 71% 30.33 in 10.0 mi NNE 8.1 mph - N/A   Overcast
12:35 AM 51.8 °F 42.8 °F 71% 30.32 in 10.0 mi NNE 11.5 mph - N/A   Overcast
12:55 AM 51.8 °F 41.0 °F 67% 30.32 in 10.0 mi NNE 10.4 mph - N/A   Overcast
1:15 AM 51.8 °F 41.0 °F 67% 30.32 in 10.0 mi NNE 9.2 mph - N/A   Overcast
1:35 AM 51.8 °F 41.0 °F 67% 30.32 in 10.0 mi NNE 10.4 mph - N/A   Overcast
1:55 AM 51.8 °F 41.0 °F 67% 30.32 in 10.0 mi NE 10.4 mph - N/A   Overcast
2:15 AM 51.8 °F 42.8 °F 71% 30.32 in 10.0 mi NNE 9.2 mph - N/A   Overcast
2:35 AM 51.8 °F 42.8 °F 71% 30.30 in 10.0 mi NNE 10.4 mph - N/A   Scattered Clouds
2:55 AM 51.8 °F 42.8 °F 71% 30.30 in 10.0 mi NNE 11.5 mph 16.1 mph N/A   Scattered Clouds
3:15 AM 51.8 °F 42.8 °F 71% 30.31 in 10.0 mi NNE 9.2 mph - N/A   Overcast
3:35 AM 51.8 °F 42.8 °F 71% 30.31 in 10.0 mi NNE 9.2 mph 18.4 mph N/A   Overcast
3:55 AM 51.8 °F 42.8 °F 71% 30.31 in 10.0 mi NNE 8.1 mph - N/A   Overcast
4:15 AM 51.8 °F 42.8 °F 71% 30.31 in 10.0 mi NNE 9.2 mph - N/A   Overcast
4:35 AM 51.8 °F 42.8 °F 71% 30.31 in 10.0 mi NNE 8.1 mph - N/A   Overcast
4:55 AM 51.8 °F 42.8 °F 71% 30.31 in 10.0 mi NNE 10.4 mph - N/A   Overcast
5:15 AM 51.8 °F 42.8 °F 71% 30.31 in 10.0 mi NNE 10.4 mph 17.3 mph N/A   Overcast
5:35 AM 51.8 °F 42.8 °F 71% 30.31 in 10.0 mi NE 13.8 mph 19.6 mph N/A   Overcast
5:55 AM 51.8 °F 42.8 °F 71% 30.32 in 10.0 mi NNE 11.5 mph 20.7 mph N/A   Overcast
6:15 AM 51.8 °F 42.8 °F 71% 30.32 in 10.0 mi NE 11.5 mph 19.6 mph N/A   Overcast
6:35 AM 51.8 °F 42.8 °F 71% 30.33 in 10.0 mi NNE 15.0 mph 21.9 mph N/A   Overcast
6:55 AM 51.8 °F 42.8 °F 71% 30.33 in 10.0 mi NNE 11.5 mph 17.3 mph N/A   Overcast
7:15 AM 51.8 °F 42.8 °F 71% 30.34 in 10.0 mi NNE 11.5 mph 20.7 mph N/A   Overcast
7:35 AM 51.8 °F 44.6 °F 76% 30.34 in 10.0 mi NNE 13.8 mph 21.9 mph N/A   Overcast
7:55 AM 53.6 °F 44.6 °F 72% 30.35 in 10.0 mi NE 12.7 mph 19.6 mph N/A   Overcast
8:15 AM 53.6 °F 44.6 °F 72% 30.37 in 10.0 mi NNE 11.5 mph - N/A   Overcast
8:35 AM 53.6 °F 44.6 °F 72% 30.37 in 10.0 mi NNE 13.8 mph 20.7 mph N/A   Overcast
8:55 AM 53.6 °F 44.6 °F 72% 30.38 in 10.0 mi NNE 11.5 mph 21.9 mph N/A   Overcast
9:15 AM 53.6 °F 44.6 °F 72% 30.38 in 10.0 mi NNE 12.7 mph 20.7 mph N/A   Overcast
9:35 AM 53.6 °F 44.6 °F 72% 30.39 in 10.0 mi NNE 13.8 mph 23.0 mph N/A   Overcast
9:55 AM 53.6 °F 44.6 °F 72% 30.38 in 10.0 mi NNE 12.7 mph 20.7 mph N/A   Overcast
10:15 AM 53.6 °F 44.6 °F 72% 30.39 in 10.0 mi NNE 10.4 mph 19.6 mph N/A   Overcast
10:35 AM 53.6 °F 46.4 °F 77% 30.39 in 10.0 mi NNE 10.4 mph 17.3 mph N/A   Overcast
10:55 AM 53.6 °F 46.4 °F 77% 30.39 in 10.0 mi NNE 12.7 mph 21.9 mph N/A   Overcast
11:15 AM 53.6 °F 46.4 °F 77% 30.39 in 10.0 mi NNE 9.2 mph 20.7 mph N/A   Overcast
11:35 AM 53.6 °F 46.4 °F 77% 30.38 in 10.0 mi NNE 17.3 mph 20.7 mph N/A   Overcast
11:55 AM 53.6 °F 46.4 °F 77% 30.37 in 10.0 mi NNE 15.0 mph 26.5 mph N/A   Overcast
12:15 PM 53.6 °F 46.4 °F 77% 30.37 in 10.0 mi NNE 12.7 mph 24.2 mph N/A   Overcast
12:35 PM 53.6 °F 46.4 °F 77% 30.37 in 10.0 mi NNE 12.7 mph 20.7 mph N/A   Overcast
12:55 PM 55.4 °F 48.2 °F 77% 30.37 in 10.0 mi NNE 10.4 mph 21.9 mph N/A   Overcast
1:15 PM 55.4 °F 46.4 °F 72% 30.36 in 10.0 mi NNE 15.0 mph 21.9 mph N/A   Overcast
1:35 PM 55.4 °F 46.4 °F 72% 30.35 in 10.0 mi NNE 15.0 mph 20.7 mph N/A   Overcast
1:55 PM 55.4 °F 46.4 °F 72% 30.35 in 10.0 mi NNE 16.1 mph 21.9 mph N/A   Overcast
2:15 PM 55.4 °F 46.4 °F 72% 30.35 in 10.0 mi NNE 15.0 mph 23.0 mph N/A   Overcast
2:35 PM 53.6 °F 46.4 °F 77% 30.35 in 10.0 mi NNE 15.0 mph 18.4 mph N/A   Overcast
2:55 PM 53.6 °F 46.4 °F 77% 30.35 in 10.0 mi NNE 13.8 mph 19.6 mph N/A Thunderstorm Overcast
3:15 PM 53.6 °F 46.4 °F 77% 30.34 in 10.0 mi NNE 13.8 mph 23.0 mph N/A   Overcast
3:35 PM 55.4 °F 46.4 °F 72% 30.34 in 10.0 mi NNE 15.0 mph 20.7 mph N/A Thunderstorm Overcast
3:55 PM 55.4 °F 46.4 °F 72% 30.34 in 10.0 mi NE 16.1 mph 21.9 mph N/A   Overcast
4:15 PM 55.4 °F 46.4 °F 72% 30.35 in 10.0 mi NE 15.0 mph 20.7 mph N/A   Overcast
4:35 PM 55.4 °F 46.4 °F 72% 30.35 in 10.0 mi NNE 12.7 mph 24.2 mph N/A   Overcast
4:55 PM 53.6 °F 46.4 °F 77% 30.35 in 10.0 mi NE 12.7 mph 25.3 mph N/A   Overcast
5:15 PM 53.6 °F 46.4 °F 77% 30.35 in 10.0 mi NE 12.7 mph 18.4 mph N/A   Overcast
5:35 PM 53.6 °F 46.4 °F 77% 30.34 in 10.0 mi NE 17.3 mph 23.0 mph N/A   Overcast
5:55 PM 53.6 °F 46.4 °F 77% 30.35 in 10.0 mi NNE 15.0 mph 20.7 mph N/A   Overcast
6:15 PM 53.6 °F 46.4 °F 77% 30.34 in 10.0 mi NNE 12.7 mph 19.6 mph N/A   Overcast
6:35 PM 53.6 °F 46.4 °F 77% 30.34 in 10.0 mi NE 17.3 mph 25.3 mph N/A   Overcast
6:55 PM 53.6 °F 46.4 °F 77% 30.35 in 10.0 mi NNE 13.8 mph 26.5 mph N/A   Overcast
7:15 PM 53.6 °F 46.4 °F 77% 30.34 in 10.0 mi NE 15.0 mph 20.7 mph N/A   Overcast
7:35 PM 53.6 °F 46.4 °F 77% 30.34 in 10.0 mi NNE 12.7 mph 23.0 mph N/A   Overcast
7:55 PM 55.4 °F 46.4 °F 72% 30.35 in 10.0 mi NNE 12.7 mph 18.4 mph N/A   Overcast
8:15 PM 55.4 °F 46.4 °F 72% 30.36 in 10.0 mi NE 10.4 mph 18.4 mph N/A   Overcast
8:35 PM 55.4 °F 46.4 °F 72% 30.37 in 10.0 mi NNE 10.4 mph 20.7 mph N/A   Overcast
8:55 PM 55.4 °F 46.4 °F 72% 30.37 in 10.0 mi NNE 9.2 mph 16.1 mph N/A   Overcast
9:15 PM 55.4 °F 46.4 °F 72% 30.38 in 10.0 mi NNE 10.4 mph 17.3 mph N/A   Overcast
9:35 PM 53.6 °F 46.4 °F 77% 30.37 in 10.0 mi NE 13.8 mph 20.7 mph N/A   Overcast
9:55 PM 53.6 °F 44.6 °F 72% 30.37 in 10.0 mi NNE 12.7 mph 19.6 mph N/A   Overcast
10:15 PM 53.6 °F 44.6 °F 72% 30.36 in 10.0 mi NNE 11.5 mph 24.2 mph N/A   Overcast
10:35 PM 53.6 °F 44.6 °F 72% 30.34 in 10.0 mi NE 15.0 mph 21.9 mph N/A   Overcast
10:55 PM 53.6 °F 44.6 °F 72% 30.34 in 10.0 mi NNE 15.0 mph 24.2 mph N/A   Overcast
11:15 PM 53.6 °F 44.6 °F 72% 30.34 in 10.0 mi NE 15.0 mph 24.2 mph N/A   Overcast
11:35 PM 53.6 °F 44.6 °F 72% 30.35 in 10.0 mi NNE 11.5 mph 19.6 mph N/A   Overcast
11:55 PM 53.6 °F 44.6 °F 72% 30.33 in 10.0 mi NNE 11.5 mph 17.3 mph N/A   Overcast